Regional Weather Roundup
Issued by NWS

Home | Current Version | Previous Version | Graphics & Text | Print | Product List | Glossary On
Versions: 1 2 3 4 5 6 7 8 9 10 11 12 13 14 15 16 17 18 19 20 21 22 23 24 25 26 27 28 29 30 31 32 33 34 35 36 37 38 39 40 41 42 43 44 45 46 47 48 49 50
000
ASUS43 KLOT 031800
RWRIL

ILLINOIS REGIONAL WEATHER ROUNDUP
NATIONAL WEATHER SERVICE CHICAGO/ROMEOVILLE IL
100 PM CDT SUN MAY 03 2015

NOTE: "FAIR" INDICATES FEW OR NO CLOUDS BELOW 12,000 FEET WITH NO
SIGNIFICANT WEATHER AND/OR OBSTRUCTIONS TO VISIBILITY.

* THESE STATIONS ARE NOT UNDER NWS QUALITY CONTROL. THEY ALSO MAY NOT
  REPORT WEATHER SUCH AS PRECIPITATION OR FOG.

ILZ001-002-007-009-015-016-024-031900-
NORTHWEST ILLINOIS

CITY           SKY/WX    TMP DP  RH WIND       PRES   REMARKS
MOLINE         CLOUDY    75  55  49 S9        29.88R
6HR MIN TEMP:  59; 6HR MAX TEMP:  76; 6HR PCP: TRACE;

STERLING*      CLOUDY    72  59  64 E14       29.92F
$$

ILZ003-004-008-010-011-017-018-031900-
NORTH CENTRAL ILLINOIS

CITY           SKY/WX    TMP DP  RH WIND       PRES   REMARKS
ROCKFORD       LGT RAIN  65  58  78 S14       29.93F
6HR MIN TEMP:  59; 6HR MAX TEMP:  74; 6HR PCP:  0.01;

FREEPORT*      TSTM      62  55  79 SW14G21   29.97R
$$

ILZ005-006-012>014-019>023-031900-
NORTHEAST ILLINOIS

CITY           SKY/WX    TMP DP  RH WIND       PRES   REMARKS
CHICAGO-OHARE  PTSUNNY   77  46  33 SW13G28   29.94F
6HR MIN TEMP:  57; 6HR MAX TEMP:  78;

CHICAGO-MIDWAY PTSUNNY   81  43  26 SW23G31   29.96F
6HR MIN TEMP:  61; 6HR MAX TEMP:  82;

AURORA         CLOUDY    69  50  50 SW5       29.97F
6HR MIN TEMP:  58; 6HR MAX TEMP:  73;

LANSING*       CLOUDY    78  40  25 SW20G28   29.98F
WAUKEGAN       PTSUNNY   77  50  38 S18G26    29.93F
6HR MIN TEMP:  57; 6HR MAX TEMP:  78;

DUPAGE AIRPORT LGT RAIN  66  54  65 SW9       29.96F
6HR MIN TEMP:  56; 6HR MAX TEMP:  76; 6HR PCP: TRACE;

WHEELING       PTSUNNY   77  47  34 SW16G23   29.95F
6HR MIN TEMP:  55; 6HR MAX TEMP:  78;

NORTHERLY ISL    N/A     77  39  25 SW21        N/A
$$

LMZ740>746-031900-
SOUTHERN LAKE MICHIGAN

STATION/POSITION SKY/WX   TEMP    WIND        PRES    VSBY  WAVE
                          AIR SEA DIR/SP/G                  HT/PER
                          (F)     (DEG/KT/KT) (MB)    (MI)  (FT/S)
HARRISON CRIB              71     190/ 19/ 22   N/A
BURNHAM HARBOR             75     230/  9/ 17   N/A
CALUMET HARBOR             74     210/ 13/ 18   N/A
BURNS HARBOR               73     220/ 16/ 25 1015.9F
MICHIGAN CITY              74     180/ 17/ 22   N/A
MICHIGAN CITY 6N           63 50  230/ 10/ 12   N/A           1/ 3
ST. JOSEPH                 60 50  270/  8/  8   N/A           1
$$

ILZ025>027-034>036-040-047-049-050-058-095>099-031900-
WEST-CENTRAL ILLINOIS

CITY           SKY/WX    TMP DP  RH WIND       PRES   REMARKS
QUINCY         SUNNY     80  55  42 S18       29.92F HX  80
$$

ILZ028>032-037-038-041>044-048-051>054-059>061-031900-
CENTRAL ILLINOIS

CITY           SKY/WX    TMP DP  RH WIND       PRES   REMARKS
DECATUR        SUNNY     80  45  28 S17G26    29.99F
PEORIA         PTSUNNY   81  51  35 SW18G26   29.91F HX  80
6HR MIN TEMP:  61; 6HR MAX TEMP:  82;

SPRINGFIELD    MOSUNNY   83  51  33 S12G22    29.96F HX  81
6HR MIN TEMP:  62; 6HR MAX TEMP:  83;

TAYLORVILLE    NOT AVBL
$$

ILZ033-039-045-046-055>057-062-063-031900-
EAST-CENTRAL ILLINOIS

CITY           SKY/WX    TMP DP  RH WIND       PRES   REMARKS
CHAMPAIGN      SUNNY     82  39  21 SW25      30.01F HX  80
MATTOON        SUNNY     76  43  30 S17G24    30.03F
$$

ILZ079-100>102-031900-
SOUTHWEST ILLINOIS

CITY           SKY/WX    TMP DP  RH WIND       PRES   REMARKS
BELLEVILLE     SUNNY     80  53  39 S9        30.00F HX  80
CAHOKIA*       SUNNY     81  51  35 S14       29.99F HX  80
SPARTA*        MOSUNNY   75  51  42 S13G21    30.04F
$$

ILZ064>066-069>071-074>076-080>082-084>086-088>090-092>094-031900-
SOUTH-CENTRAL ILLINOIS

CITY           SKY/WX    TMP DP  RH WIND       PRES   REMARKS
CARBONDALE     SUNNY     77  51  40 S15       30.06F
6HR MIN TEMP:  55; 6HR MAX TEMP:  77;

MARION         MOSUNNY   77  50  38 S12G20    30.07F
MT. VERNON     SUNNY    N/A N/A N/A S17G23    30.06F
SALEM*         SUNNY     81  43  26 S13       30.04F
$$

ILZ067-068-072-073-078-083-087-091-031900-
SOUTHEAST ILLINOIS

CITY           SKY/WX    TMP DP  RH WIND       PRES   REMARKS
LAWRENCEVILLE  SUNNY     79  46  31 SW17      30.07F
ROBINSON*      SUNNY     78  45  30 S12       30.07F
$$

ABBREVIATIONS USED IN REMARKS
   TC - TEMPERATURE IN CELSIUS
  WCI - WIND CHILL INDEX
   HX - HEAT INDEX
  VSB - VISIBILITY
$$




USA.gov is the U.S. government's official web portal to all federal, state and local government web resources and services.